Regional Weather Roundup
Issued by NWS

Home | Current Version | Previous Version | Text Only | Print | Product List | Glossary Off
Versions: 1 2 3 4 5 6 7 8 9 10 11 12 13 14 15 16 17 18 19 20 21 22 23 24 25 26 27 28 29 30 31 32 33 34 35 36 37 38 39 40 41 42 43 44 45 46 47 48 49 50

660
ASUS44 KJAN 192103
RWRMS

MISSISSIPPI HOURLY WEATHER ROUNDUP
NATIONAL WEATHER SERVICE JACKSON MS
400 PM CDT SAT APR 19 2014

NOTE: "FAIR: INDICATES FEW OR NO CLOUDS BELOW 12,000 FEET WITH NO
SIGNIFICANT WEATHER AND/OR OBSTRUCTIONS TO VISIBILITY.

MSZ001>002-007>008-010>013-018>021-025>028-034>036-192200-
NORTHWEST MISSISSIPPI

CITY           SKY/WX    TMP DP  RH WIND       PRES   REMARKS
CLARKSDALE       N/A     77  48  36 NW9       30.15F
CLEVELAND      FAIR      78  50  38 N12       30.13F
GREENWOOD      SUNNY     78  48  34 VRB3      30.11F
GREENVILLE     MOSUNNY   79  51  37 N10       30.13F
GRENADA        FAIR      79  43  27 N8        30.11F
OLIVE BRANCH   PTSUNNY   77  43  29 NE7       30.14F
OXFORD         FAIR      77  39  25 E9        30.13F
TUNICA         CLEAR     75  45  33 NW7       30.14F
$$

MSZ003>006-009-014>017-022>024-029>033-037>039-192200-
NORTHEAST MISSISSIPPI

CITY           SKY/WX    TMP DP  RH WIND       PRES   REMARKS
BELMONT        FAIR      76  45  32 N8        30.11F
COLUMBUS AFB   SUNNY     80  43  26 NE9       30.09F
CORINTH        FAIR      77  36  22 NE3       30.12F
GOLDN TRIANGLE SUNNY     79  46  31 NE12      30.12F
STARKVILLE     FAIR      77  43  29 N7        30.10F
TUPELO         SUNNY     78  43  28 NE9       30.10F
$$

MSZ040-058-192200-
CENTRAL MISSISSIPPI

CITY           SKY/WX    TMP DP  RH WIND       PRES   REMARKS
JACKSON INTL   MOSUNNY   78  49  35 N8        30.11F
JACKSON HAWKNS MOSUNNY   77  48  35 VRB7      30.11F
MERIDIAN KEY   SUNNY     78  45  30 N15       30.09S
MERIDIAN NAS   SUNNY     78  46  32 NE10G22   30.09F
RAYMOND        FAIR      77  72  83 NW10G16   30.12F
VICKSBURG      SUNNY     78  51  38 N9        30.13F
$$

MSZ059>079-192200-
SOUTH MISSISSIPPI

CITY           SKY/WX    TMP DP  RH WIND       PRES   REMARKS
BROOKHAVEN     FAIR      75  50  41 N8        30.13F
COLUMBIA       FAIR      77  52  41 MISG      30.08F
HATTIESBURG    SUNNY     78  51  38 N9        30.08F
MCCOMB         SUNNY     78  49  35 NW13G18   30.10F
NATCHEZ        MOSUNNY   75  52  43 N10       30.13F
PINE BELT      MOSUNNY   79  52  38 N13       30.10F
$$

MSZ080>082-192200-
COASTAL MISSISSIPPI

CITY           SKY/WX    TMP DP  RH WIND       PRES   REMARKS
BAY ST LOUIS   SUNNY     79  46  31 N12G17    30.06F
BILOXI         SUNNY     78  52  39 N10       30.04F
PASCAGOULA     SUNNY     79  50  36 N12G24    30.04F
GULFPORT       SUNNY     82  50  32 NW15G22   30.04F
$$



USA.gov is the U.S. government's official web portal to all federal, state and local government web resources and services.